EW7199 Weather Reports


Display with metric or nautical units.
time (UTC)temp
F
wind
direction
speed
MPH
gust
MPH
rain 1hr
in
rain 24hr
in
rain mn
in
humidity
%
barometer
mb
20260901041910 81 289 0.0 3.0 0.00 0.00 0.00 77 1014.6
20260901041409 81 315 1.0 3.0 0.00 0.00 0.00 77 1014.6
20260901040910 81 31 1.0 2.0 0.00 0.00 0.00 77 1014.6
20260901040410 81 30 1.0 3.0 0.00 0.00 0.00 77 1014.6
20260901035411 81 30 0.0 3.0 0.00 0.00 0.00 76 1014.6
20260901034910 81 309 1.0 3.0 0.00 0.00 0.00 76 1014.6
20260901034410 81 62 1.0 2.0 0.00 0.00 0.00 77 1014.5
20260901033910 81 280 1.0 2.0 0.00 0.00 0.00 77 1014.4
20260901033409 81 302 2.0 2.0 0.00 0.00 0.00 77 1014.4
20260901032909 81 28 1.0 3.0 0.00 0.00 0.00 78 1014.3
20260901032409 81 26 1.0 2.0 0.00 0.00 0.00 77 1014.4
20260901031910 81 353 1.0 2.0 0.00 0.00 0.00 77 1014.3
20260901030910 81 315 1.0 2.0 0.00 0.00 0.00 76 1014.4
20260901030411 81 5 0.0 3.0 0.00 0.00 0.00 76 1014.4
20260901025911 81 25 1.0 2.0 0.00 0.00 0.00 76 1014.3
20260901025410 81 263 0.0 2.0 0.00 0.00 0.00 77 1014.3
20260901024410 81 241 1.0 2.0 0.00 0.00 0.00 77 1014.2
20260901023909 81 246 1.0 2.0 0.00 0.00 0.00 77 1014.1
20260901023411 81 207 0.0 2.0 0.00 0.00 0.00 76 1014.1
20260901022911 81 84 0.0 0.0 0.00 0.00 0.00 76 1014.1
20260901022410 81 84 0.0 0.0 0.00 0.00 0.00 76 1014.1
20260901021910 81 84 0.0 0.0 0.00 0.00 0.00 76 1014.1
20260901021410 81 84 0.0 0.0 0.00 0.00 0.00 76 1014.1
20260901020910 81 34 0.0 0.0 0.00 0.00 0.00 76 1014.1
20260901020411 81 34 0.0 0.0 0.00 0.00 0.00 75 1014.1
20260901015909 81 34 0.0 0.0 0.00 0.00 0.00 75 1014.1
20260901015410 81 34 0.0 0.0 0.00 0.00 0.00 75 1014.0
20260901014909 82 34 0.0 0.0 0.00 0.00 0.00 76 1014.0
20260901013910 81 42 0.0 3.0 0.00 0.00 0.00 76 1014.0
20260901012910 81 42 0.0 1.0 0.00 0.00 0.00 77 1013.9
20260901012410 81 42 0.0 1.0 0.00 0.00 0.00 78 1013.9
20260901011410 81 38 0.0 2.0 0.00 0.00 0.00 78 1013.9
20260901010910 81 41 1.0 2.0 0.00 0.00 0.00 79 1014.0
20260901010410 81 40 0.0 2.0 0.00 0.00 0.00 80 1014.0
20260901005909 81 29 1.0 3.0 0.00 0.00 0.00 80 1014.0
20260901004909 81 52 1.0 3.0 0.00 0.00 0.00 80 1014.0
20260901004409 81 42 0.0 2.0 0.00 0.00 0.00 80 1013.9
20260901003909 81 46 1.0 2.0 0.00 0.00 0.00 81 1013.9
20260901003410 82 5 0.0 1.0 0.00 0.00 0.00 81 1013.9
20260901002909 82 357 1.0 2.0 0.00 0.00 0.00 81 1013.9
20260901002409 81 274 0.0 0.0 0.00 0.00 0.00 82 1013.9
20260901001410 81 283 0.0 1.0 0.00 0.00 0.00 83 1013.9
20260901000909 81 22 1.0 3.0 0.00 0.00 0.00 83 1013.9
20260901000409 82 40 1.0 3.0 0.00 0.00 0.00 83 1014.0
20260831235410 82 92 1.0 3.0 0.00 0.00 0.00 82 1013.9
20260831234910 82 86 1.0 3.0 0.00 0.00 0.00 82 1013.9
20260831234409 82 73 1.0 3.0 0.00 0.00 0.00 82 1013.9
20260831233910 82 87 1.0 3.0 0.00 0.00 0.00 81 1013.9
20260831233409 82 87 2.0 3.0 0.00 0.00 0.00 80 1013.9
20260831232410 82 74 0.0 3.0 0.00 0.00 0.00 79 1013.9
20260831231910 82 62 1.0 3.0 0.00 0.00 0.00 79 1014.0
20260831231410 82 73 1.0 3.0 0.00 0.00 0.00 79 1013.9
20260831230910 82 85 1.0 3.0 0.00 0.00 0.00 79 1014.0
20260831225910 82 135 1.0 3.0 0.00 0.00 0.00 78 1013.9
20260831225410 83 140 1.0 3.0 0.00 0.00 0.00 78 1013.9
20260831224910 83 117 2.0 3.0 0.00 0.00 0.00 78 1013.9
20260831224410 83 136 1.0 2.0 0.00 0.00 0.00 78 1013.8
20260831223910 83 133 1.0 3.0 0.00 0.00 0.00 78 1013.8
20260831223410 83 121 1.0 3.0 0.00 0.00 0.00 77 1013.7
20260831222910 83 133 1.0 3.0 0.00 0.00 0.00 77 1013.7
20260831221910 83 125 1.0 3.0 0.00 0.00 0.00 76 1013.7
20260831221410 83 115 1.0 3.0 0.00 0.00 0.00 76 1013.7
20260831220410 84 94 0.0 2.0 0.00 0.00 0.00 76 1013.7
20260831215910 84 94 0.0 3.0 0.00 0.00 0.00 76 1013.7
20260831215410 84 105 2.0 3.0 0.00 0.00 0.00 75 1013.7
20260831214908 84 102 1.0 3.0 0.00 0.00 0.00 75 1013.7
20260831214410 85 99 2.0 3.0 0.00 0.00 0.00 74 1013.6
20260831213908 85 99 2.0 3.0 0.00 0.00 0.00 73 1013.5
20260831212909 85 99 0.0 2.0 0.00 0.00 0.00 72 1013.5
20260831212410 85 98 0.0 2.0 0.00 0.00 0.00 72 1013.6
20260831211908 86 94 0.0 1.0 0.00 0.00 0.00 71 1013.5
20260831211409 86 94 1.0 3.0 0.00 0.00 0.00 70 1013.5
20260831210909 86 93 1.0 3.0 0.00 0.00 0.00 69 1013.5
20260831210410 86 103 1.0 2.0 0.00 0.00 0.00 69 1013.4
20260831205909 86 105 0.0 1.0 0.00 0.00 0.00 69 1013.4
20260831205409 86 105 0.0 1.0 0.00 0.00 0.00 69 1013.3
20260831204909 86 104 0.0 1.0 0.00 0.00 0.00 69 1013.3
20260831204409 86 103 0.0 1.0 0.00 0.00 0.00 68 1013.2
20260831203909 86 103 0.0 2.0 0.00 0.00 0.00 68 1013.2
20260831203410 86 103 1.0 3.0 0.00 0.00 0.00 68 1013.2
20260831202908 86 105 0.0 0.0 0.00 0.00 0.00 67 1013.2
20260831202409 86 103 0.0 2.0 0.00 0.00 0.00 67 1013.1
20260831201910 86 103 0.0 1.0 0.00 0.00 0.00 67 1013.1
20260831201409 87 103 1.0 2.0 0.00 0.00 0.00 67 1013.1
20260831200410 87 100 2.0 3.0 0.00 0.00 0.00 66 1013.1
20260831194910 86 238 1.0 2.0 0.00 0.00 0.00 66 1013.0
20260831194410 86 240 1.0 2.0 0.00 0.00 0.00 66 1013.0
20260831193909 86 261 1.0 2.0 0.00 0.00 0.00 68 1013.0
20260831193410 86 272 1.0 2.0 0.00 0.00 0.00 69 1013.0
20260831192909 86 269 1.0 2.0 0.00 0.00 0.00 69 1013.0
20260831191911 86 241 1.0 2.0 0.00 0.00 0.00 71 1013.0
20260831191409 86 251 2.0 3.0 0.00 0.00 0.00 70 1013.0
20260831190910 86 249 1.0 2.0 0.00 0.00 0.00 70 1013.0
20260831190410 86 243 1.0 2.0 0.00 0.00 0.00 69 1012.9
20260831185910 87 262 1.0 3.0 0.00 0.00 0.00 69 1012.9
20260831185410 86 268 1.0 3.0 0.00 0.00 0.00 68 1012.9
20260831184910 86 247 2.0 3.0 0.00 0.00 0.00 69 1012.9
20260831184410 86 271 1.0 3.0 0.00 0.00 0.00 69 1012.9
20260831183909 86 270 2.0 3.0 0.00 0.00 0.00 69 1012.8
20260831183409 86 285 2.0 3.0 0.00 0.00 0.00 68 1012.8
20260831182910 86 268 2.0 3.0 0.00 0.00 0.00 69 1012.6
20260831182410 86 264 2.0 3.0 0.00 0.00 0.00 70 1012.5
20260831181909 87 259 2.0 3.0 0.00 0.00 0.00 69 1012.4
20260831180910 87 264 2.0 3.0 0.00 0.00 0.00 69 1012.2
20260831180409 86 251 1.0 2.0 0.00 0.00 0.00 68 1012.2
20260831175910 86 269 1.0 2.0 0.00 0.00 0.00 70 1012.2
20260831175409 86 262 1.0 2.0 0.00 0.00 0.00 71 1012.3
20260831173909 87 249 2.0 3.0 0.00 0.00 0.00 72 1012.3
20260831173409 87 242 1.0 2.0 0.00 0.00 0.00 71 1012.3
20260831172909 87 262 1.0 2.0 0.00 0.00 0.00 69 1012.4
20260831172409 87 261 2.0 3.0 0.00 0.00 0.00 68 1012.5
20260831171910 88 244 2.0 3.0 0.00 0.00 0.00 66 1012.4
20260831171409 88 254 2.0 3.0 0.00 0.00 0.00 63 1012.2
20260831170909 88 224 1.0 1.0 0.00 0.00 0.00 63 1012.2
20260831170409 88 224 0.0 1.0 0.00 0.00 0.00 63 1012.1
20260831165409 88 219 1.0 3.0 0.00 0.00 0.00 63 1012.3
20260831164909 88 223 1.0 2.0 0.00 0.00 0.00 63 1012.3
20260831164408 87 224 1.0 3.0 0.00 0.00 0.00 63 1012.4
20260831163910 87 228 2.0 3.0 0.00 0.00 0.00 62 1012.5
20260831163409 88 239 2.0 3.0 0.00 0.00 0.00 64 1012.5
20260831162910 88 228 2.0 3.0 0.00 0.00 0.00 63 1012.5
20260831162408 88 222 3.0 3.0 0.00 0.00 0.00 62 1012.4
20260831161909 89 227 1.0 3.0 0.00 0.00 0.00 64 1012.4
20260831161409 89 140 1.0 3.0 0.00 0.00 0.00 64 1012.4
20260831160910 89 140 1.0 3.0 0.00 0.00 0.00 64 1012.5
20260831160409 89 137 1.0 3.0 0.00 0.00 0.00 64 1012.4
20260831155909 89 115 1.0 3.0 0.00 0.00 0.00 65 1012.2
20260831155409 89 105 2.0 3.0 0.00 0.00 0.00 64 1012.1
20260831154909 89 79 2.0 3.0 0.00 0.00 0.00 64 1012.0
20260831154409 89 132 1.0 3.0 0.00 0.00 0.00 63 1011.9
20260831153908 89 59 1.0 3.0 0.00 0.00 0.00 62 1012.0
20260831153409 90 74 2.0 3.0 0.00 0.00 0.00 59 1011.9
20260831152909 91 56 2.0 3.0 0.00 0.00 0.00 56 1012.0
20260831151909 92 296 1.0 2.0 0.00 0.00 0.00 46 1012.0
20260831151408 91 263 1.0 3.0 0.00 0.00 0.00 47 1012.0
20260831150909 91 66 2.0 3.0 0.00 0.00 0.00 47 1012.1
20260831150409 91 58 1.0 3.0 0.00 0.00 0.00 48 1012.1
20260831145909 90 44 2.0 3.0 0.00 0.00 0.00 48 1012.1
20260831145409 89 97 1.0 3.0 0.00 0.00 0.00 52 1012.0
20260831144909 88 61 2.0 3.0 0.00 0.00 0.00 55 1011.9
20260831144414 88 53 3.0 3.0 0.00 0.00 0.00 58 1012.0
20260831143908 89 41 2.0 3.0 0.00 0.00 0.00 58 1012.1
20260831143409 89 28 2.0 3.0 0.00 0.00 0.00 60 1012.0
20260831142910 88 49 2.0 6.0 0.00 0.00 0.00 64 1011.9
20260831142409 87 65 2.0 3.0 0.00 0.00 0.00 62 1012.1
20260831141909 88 70 3.0 6.0 0.00 0.00 0.00 66 1012.2
20260831140909 91 87 2.0 7.0 0.00 0.00 0.00 60 1012.1
20260831140410 91 81 3.0 7.0 0.00 0.00 0.00 58 1012.1
20260831135909 91 91 2.0 3.0 0.00 0.00 0.00 57 1012.2
20260831135408 91 61 2.0 3.0 0.00 0.00 0.00 54 1011.9
20260831134908 92 338 2.0 3.0 0.00 0.00 0.00 53 1012.0
20260831134409 93 53 5.0 7.0 0.00 0.00 0.00 50 1012.1
20260831133909 94 95 2.0 3.0 0.00 0.00 0.00 55 1011.7
20260831132407 93 204 1.0 3.0 0.00 0.00 0.00 56 1011.2
20260831131410 93 127 2.0 3.0 0.00 0.00 0.00 56 1011.4
20260831130408 94 150 1.0 3.0 0.00 0.00 0.00 56 1011.6
20260831125908 94 150 1.0 3.0 0.00 0.00 0.00 57 1011.7
20260831125409 93 219 1.0 3.0 0.00 0.00 0.00 57 1011.8
20260831124910 93 218 1.0 3.0 0.00 0.00 0.00 57 1011.8
20260831124409 92 248 2.0 3.0 0.00 0.00 0.00 58 1011.8
20260831123909 92 221 3.0 3.0 0.00 0.00 0.00 59 1011.8
20260831123408 92 216 3.0 5.0 0.00 0.00 0.00 58 1011.8
20260831122909 92 237 2.0 3.0 0.00 0.00 0.00 57 1011.8
20260831122409 92 223 2.0 6.0 0.00 0.00 0.00 58 1011.9
20260831121909 91 174 2.0 3.0 0.00 0.00 0.00 59 1011.9
20260831121409 91 220 2.0 3.0 0.00 0.00 0.00 60 1011.9
20260831120908 91 222 2.0 3.0 0.00 0.00 0.00 61 1012.1
20260831120409 90 221 3.0 3.0 0.00 0.00 0.00 62 1012.1
20260831115909 90 229 3.0 3.0 0.00 0.00 0.00 60 1012.2
20260831115410 90 232 2.0 3.0 0.00 0.00 0.00 63 1012.2
20260831114909 89 242 3.0 3.0 0.00 0.00 0.00 64 1012.2
20260831114409 89 231 3.0 3.0 0.00 0.00 0.00 61 1012.3
20260831113909 90 239 3.0 3.0 0.00 0.00 0.00 61 1012.3
20260831113408 90 234 2.0 3.0 0.00 0.00 0.00 60 1012.3
20260831112909 90 253 2.0 3.0 0.00 0.00 0.00 61 1012.3
20260831112408 90 238 2.0 3.0 0.00 0.00 0.00 59 1012.3
20260831110909 90 264 2.0 3.0 0.00 0.00 0.00 62 1012.4
20260831110409 90 242 2.0 3.0 0.00 0.00 0.00 61 1012.5
20260831105909 89 268 2.0 3.0 0.00 0.00 0.00 62 1012.5
20260831105409 89 234 2.0 3.0 0.00 0.00 0.00 62 1012.6
20260831104910 89 243 3.0 3.0 0.00 0.00 0.00 62 1012.7
20260831104408 89 242 3.0 3.0 0.00 0.00 0.00 62 1012.7
20260831103409 88 248 2.0 3.0 0.00 0.00 0.00 64 1012.8
20260831102909 88 232 3.0 3.0 0.00 0.00 0.00 64 1012.8
20260831102409 88 234 2.0 3.0 0.00 0.00 0.00 65 1012.8
20260831101409 88 261 2.0 3.0 0.00 0.00 0.00 63 1012.8
20260831100408 88 245 2.0 3.0 0.00 0.00 0.00 66 1012.9
20260831095909 88 238 2.0 3.0 0.00 0.00 0.00 67 1012.9
20260831095409 87 233 2.0 3.0 0.00 0.00 0.00 65 1012.9
20260831094908 87 245 3.0 6.0 0.00 0.00 0.00 65 1012.9
20260831094409 87 229 2.0 6.0 0.00 0.00 0.00 67 1012.9
20260831093908 87 260 2.0 3.0 0.00 0.00 0.00 67 1013.0
20260831093409 86 243 2.0 3.0 0.00 0.00 0.00 68 1012.9
20260831092909 86 231 2.0 3.0 0.00 0.00 0.00 66 1013.0
20260831092410 86 231 2.0 3.0 0.00 0.00 0.00 67 1013.1
20260831091909 86 250 2.0 3.0 0.00 0.00 0.00 67 1013.0
20260831091408 87 261 2.0 3.0 0.00 0.00 0.00 67 1013.0
20260831090908 86 230 2.0 3.0 0.00 0.00 0.00 68 1013.1
20260831090408 86 203 2.0 3.0 0.00 0.00 0.00 69 1013.1
20260831085908 85 232 2.0 3.0 0.00 0.00 0.00 70 1013.1
20260831084909 86 236 2.0 3.0 0.00 0.00 0.00 69 1013.2
20260831084412 86 236 2.0 3.0 0.00 0.00 0.00 69 1013.2
20260831083909 85 215 2.0 3.0 0.00 0.00 0.00 69 1013.2
20260831083408 85 223 2.0 3.0 0.00 0.00 0.00 71 1013.1
20260831082409 85 226 2.0 3.0 0.00 0.00 0.00 72 1013.1
20260831081910 85 209 1.0 3.0 0.00 0.00 0.00 74 1013.2
20260831081409 84 200 1.0 3.0 0.00 0.00 0.00 74 1013.2
20260831080908 84 226 2.0 3.0 0.00 0.00 0.00 74 1013.1
20260831080408 84 229 1.0 3.0 0.00 0.00 0.00 75 1013.1
20260831075909 84 232 2.0 3.0 0.00 0.00 0.00 75 1013.0
20260831074408 83 234 2.0 3.0 0.00 0.00 0.00 77 1012.9
20260831073910 83 237 2.0 3.0 0.00 0.00 0.00 77 1012.8
20260831073409 83 237 2.0 3.0 0.00 0.00 0.00 77 1012.8
20260831072909 83 238 2.0 3.0 0.00 0.00 0.00 77 1012.7
20260831072408 83 244 2.0 3.0 0.00 0.00 0.00 77 1012.7
20260831071908 83 226 2.0 3.0 0.00 0.00 0.00 77 1012.7
20260831071408 83 234 2.0 3.0 0.00 0.00 0.00 77 1012.7
20260831070408 83 259 2.0 3.0 0.00 0.00 0.00 77 1012.7
20260831065908 83 265 2.0 3.0 0.00 0.00 0.00 78 1012.8
20260831065408 83 253 2.0 3.0 0.00 0.00 0.00 78 1012.8
20260831064908 82 268 2.0 3.0 0.00 0.00 0.00 78 1012.8
20260831064408 82 257 2.0 3.0 0.00 0.00 0.00 78 1012.8
20260831063911 82 247 2.0 3.0 0.00 0.00 0.00 78 1012.8
20260831063408 82 264 2.0 3.0 0.00 0.00 0.00 78 1012.8
20260831062908 82 259 3.0 3.0 0.00 0.00 0.00 78 1012.9
20260831061909 83 262 2.0 3.0 0.00 0.00 0.00 77 1012.8
20260831060908 83 261 1.0 2.0 0.00 0.00 0.00 76 1012.8
20260831060408 83 251 1.0 3.0 0.00 0.00 0.00 76 1012.8
20260831055908 83 264 1.0 3.0 0.00 0.00 0.00 77 1012.7
20260831055408 83 258 1.0 3.0 0.00 0.00 0.00 76 1012.7
20260831054908 83 309 2.0 3.0 0.00 0.00 0.00 76 1012.7
20260831054407 83 295 1.0 3.0 0.00 0.00 0.00 77 1012.7
20260831053909 82 296 2.0 3.0 0.00 0.00 0.00 77 1012.7
20260831052907 82 284 2.0 3.0 0.00 0.00 0.00 77 1012.7
20260831052409 82 281 1.0 3.0 0.00 0.00 0.00 78 1012.6
20260831051909 82 272 1.0 2.0 0.00 0.00 0.00 78 1012.6
20260831051408 82 236 1.0 2.0 0.00 0.00 0.00 78 1012.6
20260831050909 82 308 2.0 3.0 0.00 0.00 0.00 78 1012.6
20260831050408 82 296 1.0 2.0 0.00 0.00 0.00 78 1012.5
20260831045907 82 292 1.0 3.0 0.00 0.00 0.00 79 1012.5
20260831044907 82 285 2.0 3.0 0.00 0.00 0.00 79 1012.5
20260831044408 82 310 2.0 3.0 0.00 0.00 0.00 79 1012.4
20260831043908 82 268 1.0 3.0 0.00 0.00 0.00 80 1012.4
20260831043408 82 251 1.0 3.0 0.00 0.00 0.00 80 1012.4
20260831042909 82 321 1.0 3.0 0.00 0.00 0.00 80 1012.5
20260831042408 82 274 2.0 3.0 0.00 0.00 0.00 80 1012.5